EHI
0 0 0 0 0 0 0 0 0 0 0 0 0 0 0 0 0 0 0 0 0 0 0 0 0 0 0 0 0 0 0 1 3 3 3 3 3 3 1 0 0 0 0 0
0 0 0 0 0 0 0 0 0 0 0 0 0 0 0 0 0 0 0 0 0 0 0 0 0 0 1 1 1 0 1 2 3 3 3 3 2 2 1 0 0 0 0 0
0 0 0 0 0 0 0 0 0 0 0 0 0 0 0 0 0 0 0 0 0 0 0 0 0 0 1 2 2 1 2 3 3 3 3 1 1 1 1 0 0 0 0 0
0 0 0 0 0 0 0 0 0 0 0 0 0 0 0 0 0 0 0 0 0 0 0 0 0 0 1 3 3 2 2 3 3 3 2 1 0 0 0 0 0 0 0 0
0 0 0 0 0 0 0 0 0 0 0 0 0 0 0 0 0 0 0 0 0 0 0 0 0 0 1 2 3 2 1 2 2 2 1 1 0 0 0 0 0 0 0 0
0 0 0 0 0 0 0 0 0 0 0 0 0 0 0 0 0 0 0 0 0 0 0 0 0 0 0 1 2 1 0 1 1 1 0 0 0 0 0 0 0 0 0 0
0 0 0 0 0 0 0 0 0 0 0 0 0 0 0 0 0 0 0 0 0 0 0 0 0 0 0 0 0 0 0 0 0 0 0 0 0 0 0 0 0 0 0 0
0 0 0 0 0 0 0 0 0 0 0 0 0 0 0 0 0 0 0 0 0 0 0 0 0 0 0 0 0 0 0 0 0 0 0 0 0 0 0 0 0 0 0 0
0 0 0 0 0 0 0 0 0 0 0 0 0 0 0 0 0 0 0 0 0 0 0 0 0 0 0 0 0 0 0 0 0 0 0 0 0 0 0 0 0 0 0 0
0 0 0 0 0 0 0 0 0 0 0 0 0 0 0 0 0 0 0 0 0 0 0 0 0 0 0 0 0 0 0 0 0 0 0 0 0 0 0 0 0 0 0 0
0 0 0 0 0 0 0 0 0 0 0 0 0 0 0 0 0 0 0 0 0 0 0 0 0 0 0 0 0 0 0 0 0 0 0 0 0 0 0 0 0 0 0 0
0 0 0 0 0 0 0 0 0 0 0 0 0 0 0 0 0 0 0 0 0 0 0 0 0 0 0 0 0 0 0 0 0 0 0 0 0 0 0 0 0 0 0 0
0 0 0 0 0 0 0 0 0 0 0 0 0 0 0 0 0 0 0 0 0 0 0 0 0 0 0 0 0 0 0 0 0 0 0 0 0 0 0 0 0 0 0 0
0 0 0 0 0 0 0 0 0 0 0 0 0 0 0 0 0 0 0 0 0 0 0 0 0 0 0 0 0 0 0 0 0 0 0 0 0 0 0 0 0 0 0 0
0 0 0 0 0 0 0 0 0 0 0 0 0 0 0 0 0 0 0 0 0 0 0 0 0 0 0 0 0 0 0 0 0 0 0 0 0 0 0 0 0 0 0 0
0 0 0 0 0 0 0 0 0 0 0 0 0 0 0 0 0 0 0 0 0 0 0 0 0 0 0 0 0 0 0 0 0 0 0 0 0 0 0 0 0 0 0 0
0 0 0 0 0 0 0 0 0 0 0 0 0 0 0 0 0 0 0 0 0 0 0 0 0 0 0 0 0 0 0 0 0 0 0 0 0 0 0 0 0 0 0 0
0 0 0 0 0 0 0 0 0 0 0 0 0 0 0 0 0 0 0 0 0 0 0 0 0 0 0 0 0 0 0 0 0 0 0 0 0 0 0 0 0 0 0 0
0 0 0 0 0 0 0 0 0 0 0 0 0 0 0 0 0 0 0 0 0 0 0 0 0 0 0 0 0 0 0 0 0 0 0 0 0 0 0 0 0 0 0 0
0 0 0 0 0 0 0 0 0 0 0 0 0 0 0 0 0 0 0 0 0 0 0 0 0 0 0 0 0 0 0 0 0 0 0 0 0 0 0 0 0 0 0 0
0 0 0 0 0 0 0 0 0 0 0 0 0 0 0 0 0 0 0 0 0 0 0 0 0 0 0 0 0 0 0 0 0 0 0 0 0 0 0 0 0 0 0 0
0 0 0 0 0 0 0 0 0 0 0 0 0 0 0 0 0 0 0 0 0 0 0 0 0 0 0 0 0 0 0 0 0 0 0 0 0 0 0 0 0 0 0 0
0 0 0 0 0 0 0 0 0 0 0 0 0 0 0 0 0 0 0 0 0 0 0 0 0 0 0 0 0 0 0 0 0 0 0 0 0 0 0 0 0 0 0 0
0 0 0 0 0 0 0 0 0 0 0 0 0 0 0 0 0 0 0 0 0 0 0 0 0 0 0 0 0 0 0 0 0 0 0 0 0 0 0 0 0 0 0 0
0 0 0 0 0 0 0 0 0 0 0 0 0 0 0 0 0 0 0 0 0 0 0 0 0 0 0 0 0 0 0 0 0 0 0 0 0 0 0 0 0 0 0 0
0 0 0 0 0 0 0 0 0 0 0 0 0 0 0 0 0 0 0 0 0 0 0 0 0 0 0 0 0 0 0 0 0 0 0 0 0 0 0 0 0 0 0 0
Wind_Speed
1 1 1 2 5 6 6 7 8 4 1 2 4 4 2 2 2 3 3 4 5 5 6 6 6 6 6 7 6 4 4 4 3 2 1 1 1 0 1 1 0 1 2 3
2 1 3 3 3 5 6 7 7 3 1 3 4 5 3 1 1 2 3 4 5 6 7 8 8 7 7 7 6 5 4 4 3 2 1 1 1 1 1 1 1 1 1 2
2 1 2 2 2 4 6 7 7 5 3 2 4 6 4 1 1 3 4 4 5 5 6 7 8 7 7 7 6 5 5 5 4 3 2 1 1 1 1 0 1 1 2 2
0 2 1 1 2 5 6 5 7 6 5 4 3 5 4 2 1 2 4 4 5 6 6 7 7 7 7 7 6 6 5 5 3 2 1 0 1 1 2 2 2 2 2 2
0 2 2 2 3 4 5 5 6 6 7 5 5 6 3 2 3 4 4 4 5 6 6 7 7 7 6 6 6 6 6 6 4 3 2 1 2 2 1 2 2 2 2 3
1 1 2 4 4 3 3 3 3 4 4 6 5 7 4 2 4 4 4 4 5 6 7 7 7 6 6 6 6 6 6 6 5 4 3 2 2 2 2 2 2 2 2 3
2 0 2 3 3 0 1 2 3 4 5 5 3 6 4 0 2 3 3 5 5 6 7 7 8 7 7 7 7 7 7 7 6 5 4 3 3 3 3 3 3 3 3 3
4 2 2 3 3 2 2 3 3 4 5 3 4 6 1 1 1 2 3 4 5 6 7 7 7 7 7 7 7 7 7 7 7 6 5 4 3 2 2 3 3 3 3 3
4 3 2 3 3 2 2 2 3 4 4 5 5 3 2 0 2 3 4 5 6 7 8 7 7 7 7 7 6 6 7 7 7 6 5 5 4 4 3 4 4 3 3 3
2 4 3 3 1 2 3 1 2 3 5 6 5 4 2 2 3 4 5 6 7 7 8 8 7 7 7 7 6 6 6 6 7 7 6 4 4 5 4 4 4 3 4 3
1 3 2 1 1 2 0 1 2 3 4 5 5 2 2 2 3 4 5 6 6 7 8 8 7 7 7 7 7 7 7 7 7 7 6 6 5 5 5 4 4 4 4 4
1 3 3 2 1 2 0 1 3 4 4 5 5 3 3 3 4 4 5 6 7 7 7 8 8 7 7 7 7 7 7 7 7 7 7 6 5 5 5 5 5 4 4 4
1 2 4 2 3 1 0 1 2 3 4 5 6 4 3 4 5 5 6 7 7 8 8 8 7 7 8 8 8 7 8 8 8 7 7 7 6 5 5 6 5 5 4 4
1 2 4 5 4 2 3 3 3 4 4 6 8 9 7 8 8 8 8 8 7 8 8 8 8 8 8 8 8 8 8 8 8 8 7 7 7 6 6 6 6 5 5 5
1 3 3 5 5 4 5 6 5 7 7 7 8 9 10 10 9 8 7 7 8 9 9 9 9 9 9 9 9 9 9 8 8 8 8 8 7 7 6 6 6 5 5 5
1 2 2 4 4 4 5 7 7 8 8 10 10 11 8 8 7 7 7 7 8 9 10 10 9 9 10 9 9 10 9 9 9 8 8 8 7 7 7 6 6 6 5 5
2 2 3 4 2 4 6 5 6 5 5 6 8 7 7 7 8 8 8 8 8 9 10 10 10 9 9 9 10 10 10 9 9 8 8 8 7 7 7 7 6 6 6 6
3 3 2 3 2 5 0 2 2 4 5 5 7 6 6 7 8 6 6 7 8 9 10 10 10 10 10 9 9 10 9 9 8 8 8 8 8 8 8 7 6 6 5 5
2 3 2 2 3 5 2 2 2 4 5 4 6 7 7 7 6 3 4 7 8 9 10 10 10 10 10 9 9 9 9 8 8 8 8 8 8 8 8 7 7 6 5 6
1 1 3 3 4 5 1 1 1 3 5 1 3 5 6 6 5 5 7 9 10 10 9 9 9 9 9 9 9 9 9 9 9 9 9 9 8 8 8 8 7 6 5 6
2 2 3 5 5 5 1 1 3 4 3 1 3 4 4 4 5 7 9 9 9 9 10 10 9 8 9 9 9 9 9 9 10 9 9 9 8 8 8 7 6 6 5 5
4 4 4 3 5 5 2 3 4 3 2 2 3 4 4 6 7 8 9 9 10 10 10 10 9 9 9 9 8 9 10 10 10 9 9 9 8 7 6 6 5 5 4 5
5 4 3 5 4 2 3 3 2 1 2 3 4 4 5 6 7 8 9 9 9 9 9 9 9 10 9 9 8 9 10 10 10 9 9 8 8 7 6 5 5 4 3 3
3 2 4 5 6 4 4 4 3 3 4 4 4 5 5 6 7 8 8 8 9 9 9 8 9 9 10 10 9 9 10 10 9 9 9 8 7 7 6 5 4 3 3 3
2 4 4 6 5 4 5 5 4 4 4 5 5 5 5 6 7 7 7 8 8 9 8 8 8 9 10 10 10 10 10 10 9 8 8 7 6 6 5 5 4 4 4 4
4 6 5 5 3 4 4 3 4 4 5 5 5 6 6 6 7 7 7 7 8 8 8 8 9 9 10 10 10 10 9 9 8 7 7 6 5 5 5 5 5 5 5 6
Wind_Direction
83 153 227 249 248 259 257 250 254 254 343 259 231 253 292 341 355 355 2 1 3 359 355 360 2 4 6 6 3 359 357 2 9 17 3 343 346 307 173 151 194 198 193 191
169 225 273 278 258 260 254 258 262 259 264 270 254 257 267 36 24 12 5 358 355 353 355 360 4 8 5 1 360 356 354 353 350 355 346 305 287 272 262 187 216 221 230 212
195 337 299 254 259 262 250 252 264 272 291 234 264 247 209 194 15 10 9 1 357 355 350 352 356 358 358 359 356 351 348 347 345 355 14 11 357 319 290 234 240 232 225 236
320 309 297 270 278 271 261 261 265 261 252 249 243 260 214 226 270 338 348 353 353 351 346 350 350 350 353 354 354 350 349 350 350 354 357 9 304 287 294 272 239 238 223 225
348 340 313 285 290 272 275 291 260 247 241 252 232 251 239 188 265 292 311 328 339 345 346 344 344 341 345 351 356 355 353 358 355 349 329 286 282 291 300 294 250 235 223 223
321 346 327 309 309 289 301 267 217 215 230 243 230 237 250 195 256 274 291 318 336 341 341 343 346 342 345 354 359 358 357 0 356 349 331 296 285 297 292 298 279 261 245 228
309 122 24 344 311 339 314 261 238 220 223 244 205 231 247 116 264 273 302 322 332 338 340 342 347 346 348 352 357 355 355 356 352 346 337 318 299 290 268 274 262 265 256 244
310 291 24 4 333 292 248 254 261 261 254 256 212 235 224 76 295 314 331 336 342 343 343 342 343 342 343 345 351 350 346 348 346 339 332 329 317 296 285 286 272 259 265 262
321 307 10 1 353 319 246 227 289 278 275 260 236 243 256 327 315 331 337 343 342 341 340 341 344 343 340 340 343 342 338 338 339 334 327 324 324 312 294 291 279 264 269 275
305 287 319 327 283 37 336 270 221 243 265 260 251 244 276 305 311 323 329 330 333 336 338 341 343 341 339 338 335 337 337 333 333 331 325 320 319 318 306 292 283 273 268 267
292 271 302 307 327 324 40 206 253 245 269 269 265 264 30 294 299 308 318 329 329 331 332 336 338 340 338 338 335 337 337 334 334 330 324 320 319 318 308 298 287 273 269 263
308 275 273 265 48 2 284 265 244 251 247 249 266 272 63 331 323 318 321 329 331 331 332 335 340 342 342 340 337 336 335 332 330 327 322 317 315 318 312 301 292 280 269 261
175 244 279 218 172 119 242 252 247 253 255 245 247 254 62 348 335 326 323 329 332 333 336 339 343 345 342 339 335 333 331 330 329 326 322 317 316 314 309 302 288 283 274 262
163 227 254 279 315 306 263 265 233 223 237 246 247 269 296 315 319 325 327 330 332 336 338 340 341 339 338 336 333 331 329 329 326 323 317 314 313 310 304 300 291 280 273 261
250 240 242 267 282 270 272 274 245 226 244 254 266 273 292 308 311 316 322 328 333 337 339 338 335 334 334 333 333 331 328 328 324 320 315 310 311 309 304 298 292 281 270 262
258 244 240 256 253 269 281 279 261 250 253 255 268 278 299 311 314 319 326 329 330 333 333 332 331 330 329 329 329 327 324 323 320 315 311 309 308 307 305 300 290 280 270 263
208 214 246 252 282 278 267 261 233 231 240 250 260 280 316 314 317 321 324 325 326 327 328 328 327 325 323 323 323 321 319 317 315 312 309 309 308 302 301 296 287 276 266 257
205 216 242 279 271 248 274 62 233 239 267 257 264 286 301 303 308 307 315 323 324 326 326 325 323 322 321 320 319 316 316 314 312 312 312 310 309 304 301 293 286 280 271 257
220 211 225 247 259 267 255 208 221 244 276 257 262 287 306 315 302 303 341 336 326 321 319 319 319 318 318 320 319 316 317 315 313 314 313 311 307 301 298 290 286 277 269 261
87 203 224 231 253 261 336 92 220 226 266 206 259 288 310 317 299 326 342 330 324 324 322 321 320 319 319 321 319 317 317 316 314 312 308 306 302 297 292 288 284 274 266 263
172 193 223 236 248 269 349 161 184 230 315 359 275 285 295 293 294 313 319 320 321 323 323 324 322 320 320 320 319 317 317 315 312 308 304 303 302 298 290 286 278 269 268 266
202 196 204 211 228 257 116 162 211 281 352 302 289 289 288 292 299 307 315 320 323 325 326 326 323 321 320 322 321 316 316 315 312 309 308 307 305 300 291 287 277 269 266 266
219 221 218 215 237 9 175 216 258 306 280 286 290 292 289 293 300 310 314 316 319 321 322 323 321 318 321 324 322 315 316 317 314 312 310 309 307 302 299 293 277 274 268 262
215 225 231 251 260 263 246 249 266 276 278 288 290 289 288 289 297 304 308 312 317 319 320 321 320 320 322 325 324 318 316 316 313 311 311 310 310 309 307 303 289 275 267 261
219 187 224 250 273 285 244 242 264 281 285 289 291 287 284 287 293 300 303 309 314 316 317 317 317 317 318 321 322 323 321 319 315 313 312 311 311 311 310 309 301 290 283 277
194 197 209 242 244 247 272 265 269 273 279 282 287 290 289 288 291 299 302 306 310 312 314 315 316 317 317 319 320 322 323 320 316 316 318 317 316 315 315 314 313 313 301 307